Regional Weather Roundup
Issued by NWS Wakefield, VA

Home | Current Version | Previous Version | Text Only | Print | Product List | Glossary Off
Versions: 1 2 3 4 5 6 7 8 9 10 11 12 13 14 15 16 17 18 19 20 21 22 23 24 25 26 27 28 29 30 31 32 33 34 35 36 37 38 39 40 41 42 43 44 45 46 47 48 49 50

000
ASUS41 KAKQ 031915
RWRAKQ

REGIONAL WEATHER ROUNDUP
NATIONAL WEATHER SERVICE WAKEFIELD VA
300 PM EDT THU SEP 03 2015

Note: "fair" indicates few or no clouds below 12,000 feet with no
significant weather and/or obstructions to visibility. * = Denotes
station may not report precipitation (e.g., rain,snow,etc.),
thunder or fog.

VAZ042-051-052>054-056-032000-
NORTHERN VIRGINIA

CITY           SKY/WX    TMP DP  RH WIND       PRES   REMARKS
WASH NATIONAL  MOSUNNY   94  68  42 N10       29.87F HX  98
DULLES         MOSUNNY   91  65  41 CALM      29.89F
FORT BELVOIR   SUNNY     93  66  40 VRB6      29.87F HX  96
QUANTICO       MOSUNNY   90  74  59 S8        29.88F HX  99
FREDERICKSBRG* SUNNY     91  67  44 W3        29.87F
STAFFORD*      MOSUNNY   92  63  38 N7        29.93F
WARRENTON      SUNNY     93  68  44 NW8       29.89F HX  97
CULPEPER*      MOSUNNY   89  69  50 N6        29.90F
MANASSAS*      MOSUNNY   91  66  43 NW9       29.89F
LEESBURG*      SUNNY     91  68  46 N8        29.90F HX  95
WINCHESTER     MOSUNNY   91  61  35 N3        29.92S
FRONT ROYAL*   FAIR      84  70  61 S8        29.92S
LURAY*         FAIR      81  72  74 CALM      29.94F
$$

VAZ048-049-060>072-079>083-032000-
CENTRAL AND SOUTH CENTRAL VIRGINIA

CITY           SKY/WX    TMP DP  RH WIND       PRES   REMARKS
RICHMOND       MOSUNNY   92  67  43 CALM      29.89F HX  95
CHESTERFIELD*  MOCLDY    91  64  40 W5        29.90F
PETERSBURG*    SUNNY     92  73  53 N5        29.90F HX 100
HANOVER        MOSUNNY   92  68  45 CALM      29.90F HX  96
TAPPAHANNOCK*  SUNNY     93  60  33 CALM      29.89F
QUINTON*       FAIR      90  71  52 W5        29.88F HX  96
CHARLOTTSVILLE MOSUNNY   87  70  56 S6        29.92F
GORDONSVILLE*  FAIR      90  69  50 NW5       29.90F
ORANGE*        PTSUNNY   91  64  40 SW3       29.91F
LOUISA*        PTSUNNY   91  66  43 N10       29.89F
BUMPASS*       FAIR      90  68  49 CALM      29.89F
FARMVILLE*     SUNNY     94  60  31 SE3       29.90F
CREWE*         FAIR     N/A N/A N/A NE5       29.91F
FORT PICKETT*  FAIR      91  66  43 NE5       29.91F
CHASE CITY*    MOCLDY    90  71  53 CALM      29.92F HX  96
CLARKSVILLE*   FAIR      88  68  51 W5        29.92F
SOUTH HILL*    MOSUNNY   86  71  59 CALM      29.97F
LAWRENCEVILLE* FAIR      88  72  58 CALM      29.90F
EMPORIA*       SUNNY     88  70  55 CALM      29.91F
$$

VAZ088>098-032000-
SOUTHEAST VIRGINIA

CITY           SKY/WX    TMP DP  RH WIND       PRES   REMARKS
NORFOLK        SUNNY     89  65  44 N7        29.88F
VIRGINIA BEACH MOSUNNY   93  68  43 NW8       29.88F HX  97
NORFOLK NAVAL  MOSUNNY   89  69  51 N5        29.90F
WEST POINT*    PTSUNNY   94  65  38 CALM      29.89F HX  97
SALUDA*        FAIR      88  74  63 CALM      29.88F HX  96
NEWPORT NEWS   SUNNY     91  68  46 E9        29.88F HX  95
LANGLEY AFB    SUNNY     89  71  54 NE8       29.87F
FORT EUSTIS    SUNNY     91  69  48 NW8       29.86F HX  95
WILLIAMSBURG*  SUNNY     97  70  41 SE3       29.89F HX 103
HR EXEC AP*      N/A     91  72  52 NE7       29.90S HX  98
FRANKLIN*      MOSUNNY   91  67  44 NW5       29.88F
WAKEFIELD      SUNNY     93  67  42 VRB3      29.89F HX  96
$$

VAZ020-022-025-037-045-032000-
WEST CENTRAL AND SOUTHWEST VIRGINIA

CITY           SKY/WX    TMP DP  RH WIND       PRES   REMARKS
STAUNTON*      MOSUNNY   91  64  40 NW17G24   29.98S
WAYNESBORO*    MOCLDY    90  62  38 CALM      29.97F
HOT SPRINGS VA PTSUNNY   69  64  83 NW6       30.12F
LYNCHBURG      PTSUNNY   90  63  40 SW3       29.95F
DANVILLE       PTSUNNY   88  66  48 VRB3      29.94F
SOUTH BOSTON*  FAIR      89  64  43 CALM      29.92F
MARTINSVILLE   PTSUNNY   92  60  35 NE3       29.98F
ROANOKE        MOSUNNY   91  60  35 N7        29.98F
BLACKSBURG     PTSUNNY   85  65  51 NE9       30.06F
DUBLIN*        CLOUDY    83  65  53 NW7       30.06S
MARION*        MOSUNNY   83  65  52 NW5       30.09F
HILLSVILLE*    PTSUNNY   80  64  57 N3        30.07S
RICHLANDS*     MOCLDY    80  26  14 N7        30.09F
WISE*          PTSUNNY   81  61  50 NE5       30.11F
ABINGDON*      MOSUNNY   85  64  49 CALM      30.06F
$$

MDZ021>025-VAZ099-100-032000-
SOUTHERN MARYLAND AND THE DELMARVA PENINSULA

CITY           SKY/WX    TMP DP  RH WIND       PRES   REMARKS
PATUXENT RIVER MOSUNNY   88  68  51 SE7       29.87F
BAY BRIDGE APT   N/A     88  64  45 W3        29.87F
LEONARDTOWN    NOT AVBL
DOVER          SUNNY     92  71  50 VRB5      29.84F HX  98
GEORGETOWN     PTSUNNY   92  65  40 NW7       29.86F
EASTON         MOSUNNY   91  68  46 NW7       29.91F HX  95
CAMBRIDGE      SUNNY     91  66  43 W6        29.87S
SALISBURY      MOSUNNY   91  67  44 VRB3      29.86F
OCEAN CITY     SUNNY     84  70  62 MISG      29.87F
WALLOPS ISLAND SUNNY     87  71  58 S12       29.88F
ACCOMACK*      SUNNY     86  61  42 W8        29.86F
$$

NCZ012>017-030>032-032000-
NORTH CENTRAL AND EASTERN NORTH CAROLINA

CITY           SKY/WX    TMP DP  RH WIND       PRES   REMARKS
ROANOKE RAPIDS FAIR      86  68  54 CALM      29.90F
RALEIGH        PTSUNNY   88  65  46 CALM      29.93F
ELIZABETH CITY MOSUNNY   88  72  58 E5        29.88F
AHOSKIE*       PTSUNNY   86  70  58 N3        29.90F
EDENTON*       SUNNY     84  70  62 SW6       29.90F
CURRITUCK*     SUNNY     88  67  49 NE6       29.89F
KILL DEVIL HLS SUNNY     91  71  51 CALM      29.88F HX  97
MANTEO         SUNNY     85  68  55 W3        29.90F
CAPE HATTERAS  SUNNY     82  70  66 VRB6      29.90F
TARBORO*       FAIR      88  70  54 E3        29.91F
GOLDSBORO      MOSUNNY   89  68  51 NW7       29.90F
WASHINGTON     MOSUNNY   84  71  63 CALM      29.90F
GREENVILLE     MOSUNNY   86  70  58 W3        29.93F
NEW BERN       MOSUNNY   87  71  58 NE6       29.91F
WILMINGTON     MOSUNNY   85  71  63 S8        29.91S
$$

VAZ048-032000-
ELSEWHERE

CITY           SKY/WX    TMP DP  RH WIND       PRES   REMARKS
HARRISBURG PA  MOSUNNY   91  65  41 W8        29.87F
BALTIMORE      MOSUNNY   93  66  40 NW6       29.86F HX  96
ANNAPOLIS      SUNNY     85  74  69 SE10      29.87F
ANDREWS AFB    MOSUNNY   91  68  46 SW7       29.87F THUNDER HX  95
PHILADELPHIA   MOSUNNY   94  61  33 N12G17    29.85S
HENDERSON NC   MOSUNNY   87  60  40 CALM      29.93F
GREENSBORO     PTSUNNY   85  65  51 VRB5      29.96F
ROCKY MOUNT    PTSUNNY   89  68  49 VRB3      29.91F
$$

VAZ100-032000-
MARINE

STATION/POSITION TIME  TEMP    WIND        PRES    WAVE   SWELL
                       AIR SEA DIR/SP/G            HT/PER HT/PER
                 (UTC) (F)     (DEG/KT/KT) (MB)    (FT/S) (FT/S)
BRANDYWINE LGT   1800   81 76  260/  5/  5 1012.0F
CAPE MAY NJ      1800   79 81  260/  7/  7 1011.4F
LEWES DE         1800   80 76   20/  4/  4 1011.8F
15NM E FENWICK I 1850   79 81  300/  2/  4 1011.7F   1/13   2/13
OCEAN-CITY-INLET 1800   83 77   90/  6/  8 1011.2F
GOOSES REEF MD   1900   83 82  110/  4/  6 1012.7F
COVE POINT MD    1800   81      60/  4/  5 1012.9F
SOLOMONS ISLAND  1800      81                N/A
BISHOPS HEAD MD  1800   81 85  250/  6/  7 1011.3F
PINEY POINT MD   1805          230/  2/  2   N/A
POTOMAC MD       1900   85 82  170/  2/  4 1010.6F   0
CAMBRIDGE MD     1800   85 81  320/  7/  9 1011.2F
LEWISETTA VA     1800   83 82   90/  4/  4 1011.8F
RAPPAHANNOCK LGT 1800          320/  3/  3 1012.9F
STINGRAY PT      1900   83 84  140/  2/  4 1012.3F   0
YORK RVR RNG VA  1800   81     120/  5/  6 1012.0F
JAMESTOWN VA     1900   86 83  280/  4/  4   N/A
DOMINION TERM VA 1800   83     300/  3/  4 1012.3F
KIPTOPEKE VA     1800      80  330/  7/  8   N/A
CHES BAY BRIDGE  1800   80 79  350/  3/  3 1012.2F
CAPE HENRY VA    1800   81     330/  5/  6   N/A
CHESAPEAKE LGHT  1800   81     290/  5/  6 1013.3F
WILLOUBY STN VA  1800   81      80/  4/  5 1013.5F
CAPE HENRY BUOY  1828      81                N/A     1/13
1ST LANDING BUOY 1900      79              1011.8F   1
CAPE CHARLES BUO 1826      80                N/A     1/13   2/13
OFFSHORE WE BUOY 1811      80                N/A     1/13   2/13
64NM E OF VA BCH 1850   79 80  280/  6/  6 1011.7F   2/ 4   2/13
DUCK PIER NC     1800   87 80  120/  3/  4 1011.9F
44100 DUCK FRF   1824      81                N/A     1/13
44056 DUCK FRF   1811      82                N/A     1/13
OREGON INLET NC  1800   83 82   40/  4/  6 1012.9F
HATTERAS NC      1800   80 83  290/  3/  5 1013.1F
DIAMOND SHLS NC  1850   80 86  310/  4/  6 1012.8F   1/13   2/13
CAPE LOOKOUT NC  1900   82     220/  7/  9 1012.4F
$$


USA.gov is the U.S. government's official web portal to all federal, state and local government web resources and services.